Afton Municipal Airport, WY

4:32 AM MST on December 16, 2019 (GMT -0700)
Afton Municipal

Weather History for KAFO - October, 2019

Change the Weather History Date:

Thursday, October 10, 2019

  Actual Average Record
Temperature  
Mean Temperature 24 °F -  
Max Temperature 32 °F 61 °F 73 °F (2015)
Min Temperature 14 °F 26 °F 21 °F (2017)
Degree Days  
Heating Degree Days 42    
Moisture  
Dew Point 12 °F    
Average Humidity 64    
Maximum Humidity 80    
Minimum Humidity 38    
Precipitation  
Precipitation 0.00 in - - ()
Sea Level Pressure  
Sea Level Pressure 30.23 in    
Wind  
Wind Speed 5 mph ()    
Max Wind Speed 14 mph    
Max Gust Speed 18 mph    
Visibility 9.6 miles    
Events Snow    
Averages and records for this station are not official NWS values.
T = Trace of Precipitation, MM = Missing Value Source: Averaged Metar Reports

Daily Weather History Graph

Daily Weather History Graph

Search for Another Location

Airport or City:

Astronomy

Oct. 10, 2019 Rise Set
Actual Time 7:30 AM MDT 6:49 PM MDT
Civil Twilight 7:02 AM MDT 7:18 PM MDT
Nautical Twilight 6:29 AM MDT 7:50 PM MDT
Astronomical Twilight 5:57 AM MDT 8:23 PM MDT
Moon 5:58 PM MDT (10/10) 4:11 AM MDT (10/10)
Length of Visible Light 12h 15m
Length of Day
11h 18m
Waxing Gibbous, 91% of the Moon is Illuminated
Oct 10
Waxing Gibbous
Oct 13
Full
Oct 21
Last Quarter
Oct 27
New
Nov 4
First Quarter

Hourly Weather History & Observations

Time (MDT) Temp. Windchill Dew Point Humidity Pressure Visibility Wind Dir Wind Speed Gust Speed Precip Events Conditions
12:15 AM 19.4 °F 9.5 °F 14.0 °F 80% 30.11 in 10.0 mi North 8.1 mph - N/A   Scattered Clouds
12:35 AM 19.4 °F 12.8 °F 12.2 °F 74% 30.11 in 10.0 mi North 4.6 mph - N/A   Scattered Clouds
12:55 AM 19.4 °F 10.4 °F 12.2 °F 74% 30.11 in 10.0 mi NNE 6.9 mph - N/A   Scattered Clouds
1:15 AM 19.4 °F - 12.2 °F 74% 30.11 in 10.0 mi Calm Calm - N/A   Clear
1:35 AM 17.6 °F 12.3 °F 12.2 °F 79% 30.11 in 10.0 mi NNE 3.5 mph - N/A   Scattered Clouds
1:55 AM 19.4 °F - 14.0 °F 80% 30.11 in 10.0 mi North - - N/A   Mostly Cloudy
2:15 AM 19.4 °F - 14.0 °F 80% 30.12 in 10.0 mi North - - N/A   Overcast
2:35 AM 21.2 °F - 14.0 °F 74% 30.13 in 10.0 mi North - - N/A   Overcast
2:55 AM 21.2 °F - 14.0 °F 74% 30.13 in 10.0 mi North - - N/A   Overcast
3:15 AM 21.2 °F - 14.0 °F 74% 30.13 in 10.0 mi North - - N/A Snow Light Snow
3:35 AM 21.2 °F - 14.0 °F 74% 30.13 in 7.0 mi Calm Calm - N/A Snow Light Snow
3:55 AM 21.2 °F - 15.8 °F 80% 30.13 in 4.0 mi Calm Calm - N/A Snow Light Snow
4:15 AM 21.2 °F 11.7 °F 15.8 °F 80% 30.14 in 5.0 mi North 8.1 mph - N/A Snow Light Snow
4:35 AM 19.4 °F 11.5 °F 12.2 °F 74% 30.14 in 10.0 mi NNW 5.8 mph - N/A   Overcast
4:55 AM 19.4 °F 10.4 °F 14.0 °F 80% 30.15 in 5.0 mi NW 6.9 mph - N/A Snow Light Snow
5:15 AM 19.4 °F 10.4 °F 14.0 °F 80% 30.16 in 4.0 mi NNW 6.9 mph - N/A Snow Light Snow
5:35 AM 19.4 °F 11.5 °F 14.0 °F 80% 30.17 in 5.0 mi North 5.8 mph - N/A Snow Light Snow
5:55 AM 19.4 °F 12.8 °F 14.0 °F 80% 30.17 in 10.0 mi North 4.6 mph - N/A Snow Light Snow
6:15 AM 19.4 °F 10.4 °F 14.0 °F 80% 30.18 in 10.0 mi NW 6.9 mph - N/A Snow Light Snow
6:35 AM 19.4 °F 9.5 °F 12.2 °F 74% 30.18 in 10.0 mi NW 8.1 mph - N/A   Overcast
6:55 AM 19.4 °F 8.6 °F 12.2 °F 74% 30.19 in 10.0 mi NW 9.2 mph - N/A   Overcast
7:15 AM 19.4 °F 10.4 °F 12.2 °F 74% 30.20 in 10.0 mi NNW 6.9 mph - N/A   Overcast
7:35 AM 19.4 °F 9.5 °F 12.2 °F 74% 30.20 in 10.0 mi NNW 8.1 mph - N/A   Overcast
7:55 AM 19.4 °F 10.4 °F 12.2 °F 74% 30.21 in 10.0 mi North 6.9 mph - N/A   Overcast
8:15 AM 19.4 °F 10.4 °F 12.2 °F 74% 30.21 in 10.0 mi NNW 6.9 mph - N/A   Overcast
8:35 AM 19.4 °F 10.4 °F 10.4 °F 68% 30.23 in 10.0 mi NNW 6.9 mph - N/A   Overcast
8:55 AM 19.4 °F 10.4 °F 12.2 °F 74% 30.23 in 10.0 mi NNW 6.9 mph - N/A   Overcast
9:35 AM 21.2 °F 12.6 °F 12.2 °F 68% 30.24 in 10.0 mi NNW 6.9 mph - N/A   Overcast
9:55 AM 21.2 °F 13.6 °F 12.2 °F 68% 30.24 in 10.0 mi NNW 5.8 mph - N/A   Overcast
10:15 AM 23.0 °F 18.4 °F 12.2 °F 63% 30.25 in 10.0 mi WNW 3.5 mph - N/A   Scattered Clouds
10:35 AM 23.0 °F - 12.2 °F 63% 30.25 in 10.0 mi Calm Calm - N/A   Scattered Clouds
10:55 AM 23.0 °F - 12.2 °F 63% 30.25 in 10.0 mi Calm Calm - N/A   Mostly Cloudy
11:15 AM 24.8 °F 17.9 °F 12.2 °F 59% 30.25 in 10.0 mi NW 5.8 mph - N/A   Mostly Cloudy
11:35 AM 26.6 °F 20.0 °F 12.2 °F 55% 30.25 in 10.0 mi North 5.8 mph - N/A   Scattered Clouds
11:55 AM 26.6 °F 17.5 °F 12.2 °F 55% 30.25 in 10.0 mi North 9.2 mph - N/A   Mostly Cloudy
12:15 PM 28.4 °F 24.6 °F 12.2 °F 51% 30.25 in 10.0 mi NNE 3.5 mph - N/A   Mostly Cloudy
12:35 PM 28.4 °F 20.4 °F 12.2 °F 51% 30.25 in 10.0 mi North 8.1 mph - N/A   Mostly Cloudy
12:55 PM 28.4 °F 24.6 °F 12.2 °F 51% 30.24 in 10.0 mi NNW 3.5 mph - N/A   Overcast
1:15 PM 30.2 °F 21.3 °F 12.2 °F 47% 30.24 in 10.0 mi NNE 10.4 mph - N/A   Mostly Cloudy
1:35 PM 30.2 °F - 12.2 °F 47% 30.23 in 10.0 mi Calm Calm - N/A   Mostly Cloudy
1:55 PM 30.2 °F 23.4 °F 12.2 °F 47% 30.23 in 10.0 mi NE 6.9 mph - N/A   Mostly Cloudy
2:15 PM 32.0 °F - 12.2 °F 44% 30.23 in 10.0 mi Calm Calm - N/A   Overcast
2:35 PM 32.0 °F 28.7 °F 12.2 °F 44% 30.23 in 10.0 mi NE 3.5 mph - N/A   Mostly Cloudy
2:55 PM 32.0 °F 22.5 °F 10.4 °F 41% 30.23 in 10.0 mi NNW 12.7 mph 17.3 mph N/A   Mostly Cloudy
3:15 PM 32.0 °F 23.0 °F 8.6 °F 38% 30.23 in 10.0 mi NW 11.5 mph - N/A   Scattered Clouds
3:35 PM 30.2 °F 20.8 °F 10.4 °F 44% 30.23 in 10.0 mi WNW 11.5 mph - N/A   Clear
3:55 PM 30.2 °F 20.8 °F 10.4 °F 44% 30.23 in 10.0 mi WNW 11.5 mph 18.4 mph N/A   Clear
4:15 PM 32.0 °F 24.2 °F 10.4 °F 41% 30.23 in 10.0 mi NW 9.2 mph - N/A   Clear
4:35 PM 32.0 °F 25.6 °F 8.6 °F 38% 30.24 in 10.0 mi NW 6.9 mph - N/A   Clear
5:15 PM 30.2 °F 19.8 °F 10.4 °F 44% 30.25 in 10.0 mi NW 13.8 mph 17.3 mph N/A   Clear
5:35 PM 30.2 °F 19.8 °F 10.4 °F 44% 30.26 in 10.0 mi NW 13.8 mph - N/A   Clear
5:55 PM 30.2 °F 20.2 °F 10.4 °F 44% 30.27 in 10.0 mi WNW 12.7 mph - N/A   Clear
6:15 PM 28.4 °F 18.5 °F 10.4 °F 47% 30.28 in 10.0 mi NW 11.5 mph - N/A   Clear
6:35 PM 26.6 °F 19.1 °F 10.4 °F 51% 30.29 in 10.0 mi NW 6.9 mph - N/A   Clear
6:55 PM 23.0 °F 15.8 °F 10.4 °F 59% 30.29 in 10.0 mi NNW 5.8 mph - N/A   Clear
7:15 PM 23.0 °F 15.8 °F 10.4 °F 59% 30.30 in 10.0 mi North 5.8 mph - N/A   Clear
7:35 PM 21.2 °F - 10.4 °F 63% 30.31 in 10.0 mi North - - N/A   Clear
7:55 PM 23.0 °F 15.8 °F 10.4 °F 59% 30.31 in 10.0 mi NNE 5.8 mph - N/A   Clear
8:15 PM 23.0 °F 18.4 °F 8.6 °F 54% 30.31 in 10.0 mi NNE 3.5 mph - N/A   Clear
8:35 PM 21.2 °F 13.6 °F 10.4 °F 63% 30.32 in 10.0 mi NNE 5.8 mph - N/A   Clear
8:55 PM 21.2 °F 14.9 °F 10.4 °F 63% 30.33 in 10.0 mi NNE 4.6 mph - N/A   Clear
9:15 PM 21.2 °F 14.9 °F 8.6 °F 58% 30.34 in 10.0 mi North 4.6 mph - N/A   Clear
9:35 PM 21.2 °F - 10.4 °F 63% 30.34 in 10.0 mi Calm Calm - N/A   Clear
9:55 PM 21.2 °F 14.9 °F 10.4 °F 63% 30.34 in 10.0 mi ENE 4.6 mph - N/A   Clear
10:15 PM 19.4 °F - 8.6 °F 63% 30.35 in 10.0 mi Calm Calm - N/A   Clear
10:35 PM 17.6 °F 10.7 °F 8.6 °F 68% 30.36 in 10.0 mi WSW 4.6 mph - N/A   Clear
10:55 PM 17.6 °F 12.3 °F 10.4 °F 73% 30.37 in 10.0 mi SE 3.5 mph - N/A   Clear
11:15 PM 17.6 °F - 10.4 °F 73% 30.37 in 10.0 mi Calm Calm - N/A   Clear
11:35 PM 15.8 °F - 10.4 °F 79% 30.38 in 10.0 mi Calm Calm - N/A   Clear
11:55 PM 14.0 °F - 8.6 °F 79% 30.38 in 10.0 mi Calm Calm - N/A   Clear